Regional Weather Roundup
Issued by NWS

Home | Current Version | Previous Version | Text Only | Print | Product List | Glossary On
Versions: 1 2 3 4 5 6 7 8 9 10 11 12 13 14 15 16 17 18 19 20 21 22 23 24 25 26 27 28 29 30 31 32 33 34 35 36 37 38 39 40 41 42 43 44 45 46 47 48 49 50
000
ASUS44 KBMX 240110
RWRAL

ALABAMA REGIONAL WEATHER ROUNDUP
NATIONAL WEATHER SERVICE BIRMINGHAM AL
800 PM CDT SUN JUL 23 2017

NOTE: "FAIR" INDICATES FEW OR NO CLOUDS BELOW 12,000 FEET
WITH NO SIGNIFICANT WEATHER AND/OR OBSTRUCTIONS TO VISIBILITY.

THE REMARK "TC" DENOTES TEMPERATURE IN DEGREES CELSIUS.

ALZ001>011-014-016>018-020-240200-
NORTH ALABAMA

CITY           SKY/WX    TMP DP  RH WIND       PRES   REMARKS
MUSCLE SHOALS  CLEAR     86  72  62 W5        29.90R HX  92
HUNTSVILLE     CLOUDY    85  77  77 SE5       29.88R HX  95
DECATUR        MOCLDY    86  25  11 SW8       29.88S
HALEYVILLE     NOT AVBL
GADSDEN        CLEAR     83  73  72 W3        29.88R
$$

ALZ012-013-022-023-030>036-040>044-240200-
WEST CENTRAL ALABAMA

CITY           SKY/WX    TMP DP  RH WIND       PRES   REMARKS
TUSCALOOSA     CLEAR     85  76  74 S6        29.87  HX  94
DEMOPOLIS        N/A     80  72  76 S5        29.88S
$$

ALZ015-024>026-033>036-041>044-240200-
CENTRAL ALABAMA

CITY           SKY/WX    TMP DP  RH WIND       PRES   REMARKS
BIRMINGHAM     PTCLDY    80  77  90 CALM      29.92F
MONTGOMERY     MOCLDY    85  72  65 S6        29.89S HX  91
SHELBY CO ARPT CLEAR     84  73  69 SW3       29.89F HX  90
MAXWELL AFB    PTCLDY    85  75  71 S3        29.89R HX  94
GREENVILLE     FAIR      83  72  69 SW7       29.91R
SELMA          FAIR      82  75  78 SE5       29.88S
PRATTVILLE     FAIR      82  78  86 CALM      29.89S HX  91
BESSEMER       FAIR      82  75  79 SW3       29.91F
TALLADEGA      FAIR      84  74  73 SW6       29.89F HX  91
PELL CITY      CLEAR     82  75  78 CALM      29.89F
MARION         FAIR      82  76  83 MISG      29.88S
SYLACAUGA      CLOUDY    84  75  74 SW3       29.90S HX  92
$$

ALZ019-021-028-029-037-038-045>048-240200-
EAST CENTRAL ALABAMA

CITY           SKY/WX    TMP DP  RH WIND       PRES   REMARKS
ANNISTON       CLEAR     83  74  74 SW5       29.88F
ALEXANDER CITY CLEAR     81  75  83 CALM      29.91F
AUBURN         CLEAR     84  73  69 SW9       29.94R HX  90
$$

ALZ051>064-240200-
SOUTHWEST ALABAMA

CITY           SKY/WX    TMP DP  RH WIND       PRES   REMARKS
MOBILE         MOCLDY    81  75  82 SW5       29.91F
BROOKLEY FIELD MOCLDY    80  78  94 S3        29.92F
EVERGREEN      PTCLDY    81  74  79 CALM      29.91F
$$

ALZ049-050-065>069-240200-
SOUTHEAST ALABAMA

CITY           SKY/WX    TMP DP  RH WIND       PRES   REMARKS
DOTHAN         PTCLDY    82  75  79 SW9       29.97R
OZARK          CLOUDY    81  73  76 SW6       29.92S
TROY           MOCLDY    79  73  82 S10       29.94R
EUFAULA        MOCLDY    80  75  84 S3        29.91R
$$



USA.gov is the U.S. government's official web portal to all federal, state and local government web resources and services.